Hourly Data Report for October 02, 2017

All times are specified in Local Standard Time (LST). Add 1 hour to adjust for Daylight Saving Time where and when it is observed.

WEST VANCOUVER AUT
BRITISH COLUMBIA

49°20'49.350" N
123°11'35.910" W
170.20 m
1108824
71784
WWA

Download Data

Hourly Data (October 2017)
Hourly Data Report for October 2, 2017
Temp Definition
°C
Dew Point Temp Definition
°C
Rel Hum Definition
%
Wind Dir Definition
10's deg

Wind Spd Definition
km/h
Visibility Definition
km
Stn Press Definition
kPa
Hmdx Definition


Wind Chill Definition


Weather Definition


TIME
00:00 9.9 6.3 79 3 3   100.01     LegendNANA
01:00 10.1 6.2 77   0   100.01     LegendNANA
02:00 10.1 5.9 75 1 3   100.02     LegendNANA
03:00 9.1 5.6 79 0 1   100.04     LegendNANA
04:00 8.7 5.0 77 2 3   100.06     LegendNANA
05:00 8.1 4.2 77 2 3   100.07     LegendNANA
06:00 8.0 4.0 76 3 2   100.08     LegendNANA
07:00 8.2 3.6 73 2 1   100.08     LegendNANA
08:00 9.2 4.8 74   0   100.10     LegendNANA
09:00 11.5 6.3 70 0 1   100.12     LegendNANA
10:00 14.4 4.8 53 15 2   100.14     LegendNANA
11:00 15.0 4.5 49 20 3   100.16     LegendNANA
12:00 14.9 4.2 49 16 3   100.20     LegendNANA
13:00 16.7 5.7 48 20 2   100.19     LegendNANA
14:00 16.2 4.9 47 19 3   100.20     LegendNANA
15:00 17.8 1.8 34 15 2   100.19     LegendNANA
16:00 17.0 1.7 36 11 1   100.18     LegendNANA
17:00 14.9 4.3 49 0 1   100.21     LegendNANA
18:00 13.2 3.5 52 2 3   100.24     LegendNANA
19:00 11.9 1.6 49 2 3   100.29     LegendNANA
20:00 11.3 1.5 51 3 2   100.36     LegendNANA
21:00 11.2 0.9 49 3 5   100.40     LegendNANA
22:00 11.3 0.0 46 1 5   100.46     LegendNANA
23:00 10.3 0.4 50 4 4   100.47     LegendNANA

Notes on Data Quality.

Legend

  • E = Estimated
  • M = Missing
  • NA = Not Available
  • ‡ = Partner data that is not subject to review by the National Climate Archives
Date modified: